Regional Weather Roundup
Issued by NWS Mobile, AL

Current Version | Previous Version | Text Only | Print | Product List | Glossary On
Versions: 1 2 3 4 5 6 7 8 9 10 11 12 13 14 15 16 17 18 19 20 21 22 23 24 25 26 27 28 29 30 31 32 33 34 35 36 37 38 39 40 41 42 43 44 45 46 47 48 49 50
000
ASUS44 KMOB 270810
RWRMOB
REGIONAL WEATHER ROUNDUP
NATIONAL WEATHER SERVICE MOBILE AL
300 AM CDT WED AUG 27 2014

NOTE: "FAIR" INDICATES FEW OR NO CLOUDS BELOW 12,000 FEET WITH NO
      SIGNIFICANT WEATHER AND/OR OBSTRUCTIONS TO VISIBILITY.

  * THESE STATIONS ARE PART OF THE UNIVERSITY OF SOUTH ALABAMA
    MESONET AND ARE NOT UNDER NWS OR FAA QUALITY CONTROL.

ALZ061>064-270900-
COASTAL ALABAMA

CITY           SKY/WX    TMP DP  RH WIND       PRES   REMARKS
MOBILE REG APT CLEAR     75  72  90 NE5       30.00S
BROOKLEY FIELD CLEAR     80  71  74 NE7       29.99S
USA CAMPUS*      N/A     73  72  94 CALM      29.99S
DOG RIVER*       N/A     79  73  83 CALM      29.98S


CITY           SKY/WX    TMP DP  RH WIND       PRES   REMARKS
MOUNT VERNON*    N/A     70  68  94 CALM      30.00S
SARALAND*      NOT AVBL
BAY MINETTE*   NOT AVBL
LOXLEY*          N/A     73  68  83 NE3       29.99S
ROBERTSDALE*     N/A    N/A N/A N/A CALM      29.98S
FAIRHOPE*        N/A     72  72 100 NE5       29.97F
ELBERTA*       NOT AVBL
FOLEY*         NOT AVBL
GRAND BAY*       N/A     72  72 100 CALM      29.97S
DAUPHIN ISLND* NOT AVBL
BON SCOUR NWR* NOT AVBL
GULF SHORES    PTCLDY    71  71  98 CALM      29.97F

$$

ALZ051>060-270900-
INTERIOR SOUTHWEST AND SOUTH CENTRAL ALABAMA

CITY           SKY/WX    TMP DP  RH WIND       PRES   REMARKS
GREENVILLE     CLEAR     71  62  73 CALM      30.02S
EVERGREEN      CLEAR     70  67  90 CALM      30.01S
CASTLEBERRY*   NOT AVBL
ATMORE*          N/A     73  68  83 VRB3      30.01S
DIXIE*         NOT AVBL
ANDALUSIA/OPP  CLEAR     74  66  76 CALM      30.01S
ANDALUSIA*     NOT AVBL
FLORALA APT    CLEAR     72  66  81 N3        30.02S
FLORALA*         N/A     70  66  88 CALM      29.98S

$$

FLZ001>006-270900-
WESTERN FLORIDA PANHANDLE

CITY           SKY/WX    TMP DP  RH WIND       PRES   REMARKS
PENSACOLA      CLEAR     75  70  84 NE5       29.98R
NAS PENSACOLA  CLEAR     72  71  97 CALM      29.97S
MILTON         CLEAR     73  66  78 NE5       29.99R
WHTNG S FIELD  CLEAR     76  67  73 NE7       29.99R


CITY           SKY/WX    TMP DP  RH WIND       PRES   REMARKS
WALNUT HILL*   NOT AVBL
JAY*           NOT AVBL
DUKE FIELD     CLEAR     70  69  98 N2        29.98F
CRESTVIEW      CLEAR     70  68  93 CALM      30.00S
VALPARAISO     NOT AVBL
DESTIN         CLEAR     78  74  87 CALM      29.97S

$$

MSZ076-079-270900-
INTERIOR SOUTHEAST MISSISSIPPI

CITY           SKY/WX    TMP DP  RH WIND       PRES   REMARKS
LEAKESVILLE*   NOT AVBL
AGRICOLA*      NOT AVBL

$$

MARINE OBSERVATIONS

STATION/POSITION TIME  TEMP    WIND        PRES    WAVE
                       AIR SEA DIR/SP/G            HT/PER
                 (UTC) (F)     (DEG/KT/KT) (MB)    (FT/S)
PASCAGOULA       0800   79      30/  4/  5 1014.8F
PETIT BOIS ISLND 0800   83      50/  9/ 11 1015.1F
GRAND BAY        0700   78      20/  3     1016.0S
KATRINA CUT      0700   81      30/  8     1015.6S
CEDAR POINT      0700   79      10/  5     1015.2F
E DAUPHIN ISLAND 0700   83      50/  7/  8 1015.0F
MIDDLE BAY LIGHT 0700   82      30/  8     1014.6R
USCG MOBILE BAY  0800   80 85  360/  3/  4 1014.2S
STATE DOCKS      0800   80 85              1015.0F
MEAHER PARK      0700   79      50/  3     1014.9F
WEEKS BAY        0700   73                   N/A
FORT MORGAN      0800   82      80/  5/  6 1014.6R
12 S ORANGE BCH  0800   83 85   80/  6/  8 1015.0F   2/ 6
PENSACOLA BAY    0800   82 85   CALM  /  3 1015.2S
64 S DAUPHIN ISL 0727   85 86  100/ 16/ 19 1014.2F
67 S FORT MORGAN 0700   83                 1013.9F

$$

SELECTED LOCATIONS ACROSS THE REGION

CITY           SKY/WX    TMP DP  RH WIND       PRES   REMARKS
NEW ORLEANS    PTCLDY    81  74  79 E5        29.96F
GULFPORT       PTCLDY    77  73  87 NE6       29.97S
PASCAGOULA AP  PTCLDY    73  72  96 N3        29.98S
PASCAGOULA*      N/A     77  73  88 CALM      29.97F
HATTIESBURG    PTCLDY    72  68  87 CALM      30.01S
LAUREL         CLEAR     70  63  78 N3        30.03R
MERIDIAN       CLEAR     67  64  90 CALM      30.03R
JACKSON        MOCLDY    72  64  76 NE6       30.03R
MONTGOMERY     CLEAR     70  65  84 CALM      30.03R
TROY           CLEAR     67  64  90 CALM      30.03S
KINSTON*       NOT AVBL
GENEVA*          N/A     70  64  83 CALM      30.02S
ASHFORD*       NOT AVBL
DOTHAN         CLEAR     71  64  78 NE5       30.04F
PANAMA CITY    CLEAR     73  70  90 CALM      29.97S

$$



USA.gov is the U.S. government's official web portal to all federal, state and local government web resources and services.